FW4630 Weather Reports


time (UTC)temp
F
wind
direction
speed
knots
gust
knots
rain 1hr
in
rain 24hr
in
rain mn
in
humidity
%
barometer
mb
20260504173653 43 269 18.2 26.9 0.00 0.00 0.00 65 1013.1
20260504173153 44 240 19.1 26.9 0.00 0.00 0.00 65 1013.0
20260504172654 43 229 20.0 26.9 0.00 0.00 0.00 66 1013.1
20260504172426 43 245 19.1 27.8 0.00 0.00 0.00 66 1012.8
20260504171647 43 275 17.4 27.8 0.00 0.00 0.00 65 1013.1
20260504171147 43 244 17.4 23.5 0.00 0.00 0.00 66 1013.1
20260504170147 43 244 19.1 28.7 0.00 0.00 0.00 66 1013.0
20260504160406 43 301 16.5 25.2 0.00 0.00 0.00 67 1012.7
20260504150625 43 303 12.2 15.6 0.00 0.00 0.00 64 1012.7
20260504150122 43 302 11.3 15.6 0.00 0.00 0.00 64 1012.8
20260504141115 43 289 8.7 14.8 0.00 0.00 0.00 62 1012.5
20260504140615 43 300 7.8 12.2 0.00 0.00 0.00 63 1012.6
20260504140347 43 291 8.7 12.2 0.00 0.00 0.00 63 1012.5
20260504130607 43 294 8.7 12.2 0.00 0.00 0.00 72 1012.0
20260504130107 43 281 7.8 11.3 0.00 0.00 0.00 72 1011.9
20260504110545 45 320 17.4 22.6 0.00 0.00 0.00 64 1009.6
20260504100535 53 234 10.4 13.9 0.00 0.00 0.00 48 1007.9
20260504100304 53 237 10.4 14.8 0.00 0.00 0.00 48 1008.0
20260504081747 56 208 16.5 20.0 0.00 0.00 0.00 41 1007.2
20260504081015 56 204 16.5 20.0 0.00 0.00 0.00 41 1007.2
20260504080511 56 208 16.5 20.0 0.00 0.00 0.00 40 1007.2
20260504080240 56 211 16.5 20.9 0.00 0.00 0.00 40 1007.3
20260504050445 55 187 13.9 18.2 0.00 0.00 0.00 48 1008.6
20260504050211 55 184 13.9 18.2 0.00 0.00 0.00 47 1008.8
20260504045440 55 188 13.0 17.4 0.00 0.00 0.00 47 1008.9
20260504044942 55 182 13.0 16.5 0.00 0.00 0.00 46 1009.1
20260504044712 55 188 13.0 16.5 0.00 0.00 0.00 47 1008.9
20260504043941 55 187 12.2 15.6 0.00 0.00 0.00 47 1009.1
20260504043440 55 182 12.2 15.6 0.00 0.00 0.00 47 1009.1
20260504042935 56 191 12.2 15.6 0.00 0.00 0.00 48 1009.2
20260504042434 56 190 13.0 14.8 0.00 0.00 0.00 48 1009.2
20260504042205 56 196 12.2 15.6 0.00 0.00 0.00 48 1009.2
20260504041704 56 189 12.2 15.6 0.00 0.00 0.00 48 1009.3
20260504040933 56 194 12.2 15.6 0.00 0.00 0.00 48 1009.4
20260504040433 56 203 11.3 14.8 0.00 0.00 0.00 48 1009.4
20260504035932 56 194 11.3 13.9 0.00 0.00 0.00 48 1009.4
20260504035433 56 192 10.4 13.0 0.00 0.00 0.00 48 1009.5
20260504034933 56 197 10.4 14.8 0.00 0.00 0.00 47 1009.5
20260504034432 57 198 11.3 14.8 0.00 0.00 0.00 46 1009.5
20260504033934 57 199 11.3 14.8 0.00 0.00 0.00 46 1009.6
20260504033426 57 205 12.2 14.8 0.00 0.00 0.00 45 1009.5
20260504032927 57 204 11.3 14.8 0.00 0.00 0.00 46 1009.5
20260504032426 56 193 11.3 14.8 0.00 0.00 0.00 47 1009.4
20260504031927 57 196 11.3 14.8 0.00 0.00 0.00 47 1009.4
20260504030926 58 206 12.2 15.6 0.00 0.00 0.00 45 1009.4
20260504030420 58 210 12.2 15.6 0.00 0.00 0.00 45 1009.3
20260504025920 58 217 11.3 13.9 0.00 0.00 0.00 46 1009.4
20260504025423 58 215 9.6 13.9 0.00 0.00 0.00 47 1009.3
20260504024920 58 209 9.6 13.9 0.00 0.00 0.00 47 1009.4
20260504024420 58 204 9.6 13.9 0.00 0.00 0.00 47 1009.4
20260504023919 58 213 9.6 13.9 0.00 0.00 0.00 46 1009.3
20260504022916 59 235 11.3 14.8 0.00 0.00 0.00 44 1009.3
20260504022416 59 202 10.4 13.9 0.00 0.00 0.00 45 1009.2
20260504022148 59 231 9.6 13.0 0.00 0.00 0.00 46 1009.3
20260504021414 59 219 9.6 13.0 0.00 0.00 0.00 46 1009.2
20260504020916 60 207 9.6 13.9 0.00 0.00 0.00 45 1009.2
20260504020408 60 229 10.4 14.8 0.00 0.00 0.00 44 1009.3
20260504015908 61 211 11.3 14.8 0.00 0.00 0.00 43 1009.3
20260504015409 61 232 10.4 13.9 0.00 0.00 0.00 43 1009.3
20260504014908 61 254 9.6 13.0 0.00 0.00 0.00 43 1009.3
20260504014408 61 230 9.6 12.2 0.00 0.00 0.00 43 1009.4
20260504013908 62 213 10.4 13.9 0.00 0.00 0.00 43 1009.4
20260504013402 62 225 9.6 13.9 0.00 0.00 0.00 42 1009.5
20260504012902 62 234 9.6 12.2 0.00 0.00 0.00 42 1009.5
20260504012405 62 246 9.6 12.2 0.00 0.00 0.00 42 1009.5
20260504012133 63 245 9.6 13.0 0.00 0.00 0.00 42 1009.6
20260504011402 63 273 9.6 13.0 0.00 0.00 0.00 41 1009.7
20260504010902 63 273 9.6 15.6 0.00 0.00 0.00 41 1009.9
20260504010357 64 253 9.6 15.6 0.00 0.00 0.00 40 1010.0
20260504005856 64 260 9.6 13.9 0.00 0.00 0.00 40 1009.9
20260504005356 64 274 9.6 14.8 0.00 0.00 0.00 40 1010.1
20260504004856 65 253 8.7 14.8 0.00 0.00 0.00 39 1010.1
20260504004356 64 241 7.8 11.3 0.00 0.00 0.00 40 1010.1
20260504003858 64 256 7.8 10.4 0.00 0.00 0.00 42 1010.3
20260504002850 64 267 8.7 13.0 0.00 0.00 0.00 41 1010.3
20260504002350 64 261 7.8 13.0 0.00 0.00 0.00 41 1010.3
20260504001850 64 265 7.0 11.3 0.00 0.00 0.00 41 1010.5
20260504001351 64 0 7.8 11.3 0.00 0.00 0.00 44 1010.5
20260504000849 62 270 7.8 10.4 0.00 0.00 0.00 43 1010.5
20260504000347 62 287 7.8 10.4 0.00 0.00 0.00 44 1010.8
20260504000118 62 300 8.7 14.8 0.00 0.00 0.00 43 1010.8
20260503235349 63 259 9.6 14.8 0.00 0.00 0.00 42 1010.8
20260503234848 64 271 10.4 19.1 0.00 0.00 0.00 41 1010.9
20260503234348 64 258 12.2 19.1 0.00 0.00 0.00 42 1010.9
20260503233847 65 220 13.0 21.7 0.00 0.00 0.00 40 1010.9
20260503233348 65 217 13.0 21.7 0.00 0.00 0.00 41 1011.0
20260503233114 65 195 12.2 19.1 0.00 0.00 0.00 41 1010.9
20260503232344 65 214 13.0 17.4 0.00 0.00 0.00 40 1011.1
20260503231844 65 225 13.0 18.2 0.00 0.00 0.00 40 1011.1
20260503231344 65 211 12.2 18.2 0.00 0.00 0.00 43 1011.1
20260503230843 64 192 12.2 18.2 0.00 0.00 0.00 41 1011.2
20260503230616 65 223 11.3 18.2 0.00 0.00 0.00 42 1011.2
20260503230116 64 184 11.3 19.1 0.00 0.00 0.00 43 1011.2
20260503225337 64 196 12.2 19.1 0.00 0.00 0.00 45 1011.4
20260503224838 63 182 13.0 20.9 0.00 0.00 0.00 44 1011.4
20260503224337 64 194 12.2 20.9 0.00 0.00 0.00 44 1011.5
20260503223838 63 190 12.2 21.7 0.00 0.00 0.00 48 1011.6
20260503223608 63 195 13.0 21.7 0.00 0.00 0.00 49 1011.7
20260503222838 63 183 13.9 21.7 0.00 0.00 0.00 49 1011.8
20260503222338 62 198 13.9 23.5 0.00 0.00 0.00 48 1011.8
20260503221832 64 175 13.0 23.5 0.00 0.00 0.00 47 1011.9
20260503221332 63 176 13.0 20.9 0.00 0.00 0.00 50 1012.2
20260503220333 61 186 13.9 20.9 0.00 0.00 0.00 54 1012.3
20260503215331 60 177 13.9 20.9 0.00 0.00 0.00 53 1012.4
20260503214832 60 178 15.6 22.6 0.00 0.00 0.00 54 1012.4
20260503214331 59 207 16.5 22.6 0.00 0.00 0.00 54 1012.5
20260503213831 59 178 13.9 19.1 0.00 0.00 0.00 58 1012.6
20260503213334 57 201 13.0 18.2 0.00 0.00 0.00 64 1013.0
20260503212834 56 176 12.2 19.1 0.00 0.00 0.00 68 1013.0
20260503212334 55 177 12.2 19.1 0.00 0.00 0.00 67 1013.0
20260503211830 56 180 13.9 20.0 0.00 0.00 0.00 65 1013.1
20260503211328 58 219 15.6 20.0 0.00 0.00 0.00 63 1013.4
20260503210827 59 200 14.8 22.6 0.00 0.00 0.00 67 1013.5
20260503210327 59 183 11.3 22.6 0.00 0.00 0.00 64 1013.5
20260503205828 58 186 6.1 18.2 0.00 0.00 0.00 65 1013.8
20260503205328 57 194 3.5 7.8 0.00 0.00 0.00 70 1013.6
20260503204824 56 178 4.3 9.6 0.00 0.00 0.00 73 1013.8
20260503204323 55 188 7.0 10.4 0.00 0.00 0.00 74 1013.9
20260503203823 53 181 7.8 10.4 0.00 0.00 0.00 74 1014.0
20260503203324 51 180 9.6 15.6 0.00 0.00 0.00 72 1014.0
20260503202823 51 187 12.2 20.0 0.00 0.00 0.00 76 1014.2
20260503202324 51 188 13.0 20.0 0.00 0.00 0.00 77 1014.3
20260503201818 51 186 9.6 18.2 0.00 0.00 0.00 74 1014.7
20260503201048 51 280 7.8 12.2 0.00 0.00 0.00 65 1014.8
20260503200549 51 311 9.6 13.9 0.00 0.00 0.00 68 1014.7
20260503195817 50 321 12.2 18.2 0.00 0.00 0.00 72 1014.6
20260503195319 51 329 16.5 23.5 0.00 0.00 0.00 70 1014.3
20260503194812 52 308 19.1 29.5 0.00 0.00 0.00 68 1014.3
20260503194312 54 300 17.4 29.5 0.00 0.00 0.00 60 1014.3
20260503193812 58 316 13.0 23.5 0.00 0.00 0.00 50 1014.1
20260503193311 61 313 8.7 15.6 0.00 0.00 0.00 46 1014.1
20260503193041 63 291 7.8 13.9 0.00 0.00 0.00 44 1014.2
20260503192312 62 205 11.3 20.9 0.00 0.00 0.00 44 1014.2
20260503191807 62 199 11.3 20.9 0.00 0.00 0.00 45 1014.3
20260503191307 62 223 6.1 16.5 0.00 0.00 0.00 43 1014.3
20260503190807 63 277 5.2 12.2 0.00 0.00 0.00 43 1014.6
20260503190307 64 207 7.0 12.2 0.00 0.00 0.00 42 1014.7
20260503185807 63 213 7.8 16.5 0.00 0.00 0.00 46 1014.7
20260503185308 62 196 7.0 18.2 0.00 0.00 0.00 48 1014.8
20260503184806 61 242 6.1 18.2 0.00 0.00 0.00 51 1014.9
20260503184301 61 306 6.1 12.2 0.00 0.00 0.00 51 1015.1
20260503183802 62 327 5.2 12.2 0.00 0.00 0.00 50 1015.1
20260503183304 61 268 7.0 11.3 0.00 0.00 0.00 51 1015.1
20260503182801 60 248 6.1 11.3 0.00 0.00 0.00 52 1015.4
20260503181800 59 285 5.2 9.6 0.00 0.00 0.00 53 1015.4
20260503181255 58 244 5.2 9.6 0.00 0.00 0.00 52 1015.5
20260503180756 58 262 5.2 8.7 0.00 0.00 0.00 52 1015.6
20260503180255 59 300 6.1 11.3 0.00 0.00 0.00 53 1015.7
20260503175756 59 277 7.0 12.2 0.00 0.00 0.00 50 1015.8
20260503175255 59 0 7.0 12.2 0.00 0.00 0.00 50 1015.7
20260503174756 59 258 7.8 12.2 0.00 0.00 0.00 50 1015.8
20260503174254 59 294 8.7 16.5 0.00 0.00 0.00 51 1015.9